Weather History for Minneapolis Flying Cloud, MN

Change the Weather History Date:

Monday, October 15, 2012

  Actual Average Record
Temperature  
Mean Temperature 50 °F -  
Max Temperature 63 °F 57 °F 66 °F (1999)
Min Temperature 37 °F 37 °F 26 °F (2006)
Degree Days  
Heating Degree Days 16    
Moisture  
Dew Point 35 °F    
Average Humidity 57    
Maximum Humidity 86    
Minimum Humidity 37    
Precipitation  
Precipitation 0.00 in - - ()
Sea Level Pressure  
Sea Level Pressure 29.88 in    
Wind  
Wind Speed 6 mph (SSW)    
Max Wind Speed 10 mph    
Max Gust Speed -    
Visibility 10 miles    
Events      
Averages and records for this station are not official NWS values.
T = Trace of Precipitation, MM = Missing Value Source: NWS Daily Summary

Daily Weather History Graph

Daily Weather History Graph

Search for Another Location

Airport:

Trip Planner

Search our weather history database for the weather conditions in past years. The results will help you decide how hot, cold, wet, or windy it might be!

Date:

Astronomy

Oct. 15, 2012 Rise Set
Actual Time 7:30 AM CDT 6:28 PM CDT
Civil Twilight 7:00 AM CDT 6:57 PM CDT
Nautical Twilight 6:26 AM CDT 7:31 PM CDT
Astronomical Twilight 5:52 AM CDT 8:05 PM CDT
Moon 7:43 AM CDT (10/15) 6:24 PM CDT (10/15)
Length of Visible Light 11h 57m
Length of Day
10h 58m
Waxing Crescent, 0% of the Moon is Illuminated
Oct 15
Waxing Crescent
Oct 21
First Quarter
Oct 29
Full
Nov 6
Last Quarter
Nov 13
New

Hourly Weather History & Observations

Time (CDT) Temp. Windchill Dew Point Humidity Pressure Visibility Wind Dir Wind Speed Gust Speed Precip Events Conditions
12:53 AM 46.9 °F - 36.0 °F 66% 29.89 in 10.0 mi NW 6.9 mph - N/A   Clear
1:53 AM 46.0 °F 41.9 °F 35.1 °F 66% 29.90 in 10.0 mi NW 8.1 mph - N/A   Clear
2:53 AM 44.1 °F 40.1 °F 35.1 °F 71% 29.91 in 10.0 mi NW 6.9 mph - N/A   Clear
3:53 AM 43.0 °F 39.5 °F 34.0 °F 71% 29.91 in 10.0 mi NW 5.8 mph - N/A   Clear
4:53 AM 42.1 °F 39.2 °F 34.0 °F 73% 29.92 in 10.0 mi NW 4.6 mph - N/A   Clear
5:53 AM 39.9 °F - 34.0 °F 79% 29.92 in 10.0 mi Calm Calm - N/A   Clear
6:53 AM 37.9 °F 35.5 °F 33.1 °F 83% 29.94 in 10.0 mi WSW 3.5 mph - N/A   Clear
7:53 AM 37.0 °F 33.3 °F 33.1 °F 86% 29.94 in 10.0 mi SSW 4.6 mph - N/A   Clear
8:53 AM 39.9 °F 37.8 °F 35.1 °F 83% 29.96 in 10.0 mi SW 3.5 mph - N/A   Clear
9:53 AM 45.0 °F - 36.0 °F 71% 29.96 in 10.0 mi Calm Calm - N/A   Clear
10:53 AM 51.1 °F - 35.1 °F 54% 29.96 in 10.0 mi South 3.5 mph - N/A   Clear
11:53 AM 54.0 °F - 35.1 °F 49% 29.96 in 10.0 mi SSW 6.9 mph - N/A   Clear
12:53 PM 57.0 °F - 35.1 °F 44% 29.94 in 10.0 mi South 3.5 mph - N/A   Clear
1:53 PM 59.0 °F - 35.1 °F 41% 29.91 in 10.0 mi Calm Calm - N/A   Clear
2:53 PM 60.1 °F - 35.1 °F 39% 29.88 in 10.0 mi Variable 3.5 mph - N/A   Clear
3:53 PM 62.1 °F - 35.1 °F 37% 29.86 in 10.0 mi SSE 6.9 mph - N/A   Mostly Cloudy
4:53 PM 61.0 °F - 35.1 °F 38% 29.86 in 10.0 mi South 6.9 mph - N/A   Mostly Cloudy
5:53 PM 60.1 °F - 36.0 °F 41% 29.84 in 10.0 mi SSE 5.8 mph - N/A   Overcast
6:53 PM 59.0 °F - 36.0 °F 42% 29.82 in 10.0 mi SE 6.9 mph - N/A   Overcast
7:53 PM 59.0 °F - 35.1 °F 41% 29.81 in 10.0 mi SE 9.2 mph - N/A   Mostly Cloudy
8:53 PM 57.9 °F - 36.0 °F 44% 29.80 in 10.0 mi SE 10.4 mph - N/A   Clear
9:53 PM 57.9 °F - 37.0 °F 46% 29.79 in 10.0 mi SSE 10.4 mph - N/A   Clear
10:53 PM 57.9 °F - 39.0 °F 49% 29.76 in 10.0 mi SSE 10.4 mph - N/A   Clear
11:53 PM 57.0 °F - 39.9 °F 53% 29.73 in 10.0 mi SSE 9.2 mph - N/A   Clear